Weather observations for the past three days for
Patterson Memorial
Imperial (Metric)
Date Time (cdt) Wind (mph) Vis. (mi.) Weather Sky Cond. Temperature (ºF) Relative Humidity Wind Chill (°F) Heat Index (°F) Pressure Precipitation (in)
Air Dwpt 6 hour altimeter (in) sea level (mb) 1 hr 3 hr 6 hr
Max. Min.
13 00:56 N 3 10.00 Overcast OVC046 79 77 81 78.1 94% 83 29.92 1013.1 0.01
12 23:56 N 7 10.00 Overcast BKN044 OVC085 78.1 78.1 100% 81 29.93 1013.5
12 22:56 NW 3 10.00 Overcast FEW044 OVC070 78.1 78.1 100% 81 29.93 1013.7 0.01
12 21:56 NW 5 10.00 Light Rain BKN045 OVC075 78.1 78.1 100% 81 29.93 1013.4
12 20:56 Calm 10.00 Mostly Cloudy FEW060 BKN075 80.1 78.1 94% 86 29.92 1013.0
12 19:56 Calm 10.00 Mostly Cloudy BKN046 81 75.9 85% 87 29.91 1013.0
12 18:56 E 3 10.00 Fair CLR 81 75.9 90 81 85% 87 29.91 1012.7
12 17:56 E 7 10.00 A Few Clouds FEW030 86 75.9 72% 96 29.9 1012.5
12 16:56 Vrbl 5 10.00 A Few Clouds FEW048 86 75.9 72% 96 29.91 1012.8
12 15:56 SW 8 10.00 Mostly Cloudy BKN095 BKN110 82.9 77 82% 92 29.91 1013.0
12 14:56 SW 9 10.00 Mostly Cloudy SCT019 BKN042 84.9 80.1 85% 99 29.92 1013.2
12 13:56 Vrbl 3 10.00 Partly Cloudy FEW040 SCT050 89.1 75 63% 99 29.93 1013.5
12 12:56 NE 6 10.00 Mostly Cloudy FEW036 SCT043 BKN060 88 75 89.1 75.9 66% 98 29.94 1014.0
12 11:56 NE 6 10.00 A Few Clouds FEW030 87.1 75.9 70% 98 29.96 1014.5
12 10:56 E 7 10.00 Fair CLR 84.9 75.9 75% 94 29.96 1014.5
12 09:56 E 8 10.00 Fair CLR 84 75 74% 92 29.96 1014.5
12 08:56 NE 10 10.00 Fair CLR 82 75 79% 89 29.96 1014.4
12 07:56 NE 10 10.00 Fair CLR 79 75 88% 83 29.93 1013.6
12 06:56 NE 5 10.00 Fair CLR 75.9 73.9 78.1 75 94% 75 29.92 1013.2
12 05:56 NE 6 10.00 Fair CLR 75.9 75 97% 75 29.9 1012.6
12 04:56 NE 6 10.00 Fair CLR 77 77 100% 78 29.89 1012.2
12 03:56 NE 3 10.00 Fair CLR 77 77 100% 78 29.89 1012.0
12 02:56 Calm 10.00 Fair CLR 75.9 75.9 100% 75 29.88 1012.0
12 01:56 Calm 10.00 Fair CLR 77 77 100% 78 29.9 1012.4
12 00:56 N 3 10.00 Fair CLR 77 77 82 75.9 100% 78 29.91 1012.8
11 23:56 N 3 10.00 Fair CLR 77 77 100% 78 29.91 1012.9
11 22:56 Calm 10.00 Fair CLR 75.9 75.9 100% 75 29.9 1012.6
11 21:56 Calm 10.00 Fair CLR 77 77 100% 78 29.88 1012.0
11 20:56 Calm 10.00 Mostly Cloudy BKN050 78.1 78.1 100% 81 29.87 1011.6
11 19:56 E 3 10.00 Fair CLR 81 78.1 91% 89 29.86 1011.0
11 18:56 SE 6 10.00 Fair CLR 82 77 90 78.1 85% 90 29.85 1010.7
11 17:56 SE 8 10.00 Overcast OVC110 84.9 78.1 80% 97 29.84 1010.5
11 16:56 S 3 10.00 Light Rain FEW050 SCT070 OVC095 81 79 94% 89 29.84 1010.5
11 15:56 W 10 10.00 Thunderstorm in Vicinity FEW045 BKN070 OVC090 79 75.9 90% 83 29.87 1011.4
11 14:56 SE 14 G 17 10.00 Thunderstorm in Vicinity FEW038 BKN110 88 75.9 68% 99 29.85 1010.9
11 13:56 N 8 10.00 Mostly Cloudy BKN032 89.1 78.1 70% 103 29.86 1011.0
11 12:56 Vrbl 5 10.00 Partly Cloudy FEW028 SCT039 89.1 78.1 89.1 77 70% 103 29.87 1011.6
11 11:56 Calm 10.00 Mostly Cloudy BKN028 88 78.1 73% 102 29.88 1012.0
11 10:56 NE 7 10.00 Partly Cloudy SCT019 86 79 80% 100 29.88 1012.0
11 09:56 NE 9 10.00 A Few Clouds FEW015 84 79 85% 96 29.88 1011.9
11 08:56 NE 8 10.00 Overcast OVC014 81 79 94% 89 29.89 1012.1
11 07:56 NE 9 10.00 Mostly Cloudy FEW010 BKN110 80.1 78.1 94% 86 29.88 1011.8
11 05:56 Calm 10.00 Fair CLR 73.9 73.9 100% 29.86 1011.0
11 04:56 Calm 10.00 Fair CLR 75.9 75.9 100% 75 29.84 1010.6
11 03:56 Calm 10.00 Fair CLR 75 75 100% 72 29.83 1010.3
11 02:56 Calm 10.00 Fair CLR 75.9 75.9 100% 75 29.84 1010.4
11 01:56 Calm 10.00 Fair CLR 77 77 100% 78 29.85 1010.7
11 00:56 Calm 10.00 Mostly Cloudy BKN110 77 77 84.9 75.9 100% 78 29.86 1011.3
10 23:56 Calm 10.00 Partly Cloudy SCT100 SCT120 78.1 77 97% 81 29.86 1011.3
10 22:56 Calm 10.00 Overcast OVC100 78.1 75.9 93% 81 29.86 1011.1
10 21:56 Calm 10.00 Overcast OVC085 78.1 75.9 93% 81 29.83 1010.2
10 20:56 W 5 10.00 Overcast FEW002 OVC080 78.1 75 90% 81 29.81 1009.3
10 19:56 N 9 10.00 Partly Cloudy FEW026 SCT036 80.1 73.9 82% 85 29.81 1009.4
10 18:56 SW 5 10.00 Fair CLR 84.9 77 89.1 81 77% 95 29.79 1008.9
10 17:56 SW 6 10.00 A Few Clouds FEW110 86 77 75% 97 29.79 1008.7
10 16:56 SW 7 10.00 Overcast OVC100 82 75.9 82% 89 29.79 1009.0
10 15:56 S 10 10.00 Overcast SCT029 BKN034 OVC100 87.1 78.1 75% 100 29.82 1009.9
10 14:56 SW 8 10.00 Mostly Cloudy SCT037 BKN047 87.1 77 72% 99 29.84 1010.4
10 13:56 S 3 10.00 Mostly Cloudy BKN110 86 75 70% 95 29.86 1011.1
10 12:56 Calm 10.00 Overcast FEW075 OVC090 81 73.9 88 77 79% 86 29.87 1011.5 0.01 0.03
10 11:56 W 6 10.00 Light Rain FEW042 BKN060 OVC080 77 75.9 96% 78 29.88 1012.0 0.02
10 10:56 Calm 10.00 Fair CLR 87.1 75.9 70% 98 29.87 1011.6
10 09:56 NW 5 10.00 Overcast OVC085 86 75.9 72% 96 29.88 1011.9
10 08:56 N 3 10.00 Mostly Cloudy FEW016 BKN085 82.9 78.1 85% 93 29.88 1011.7
10 07:56 Calm 10.00 Fair CLR 81 80.1 97% 90 29.87 1011.4
10 06:56 Calm 8.00 Fair CLR 75.9 75.9 75.9 73.9 100% 75 29.86 1011.2
10 05:56 Calm 9.00 Fair CLR 75 75 100% 72 29.85 1010.7
10 04:56 Calm 10.00 Fair CLR 75 75 100% 72 29.84 1010.4
10 03:56 Calm 10.00 Fair CLR 75 75 100% 72 29.85 1010.9
10 02:56 Calm 10.00 Fair CLR 75.9 75.9 100% 75 29.86 1011.3
10 01:56 Calm 10.00 Fair CLR 75.9 75.9 100% 75 29.88 1011.9
Date Time (cdt) Wind (mph) Vis. (mi.) Weather Sky Cond. Air Dwpt Max. Min. Relative Humidity Wind Chill (°F) Heat Index (°F) altimeter (in) sea level (mb) 1 hr 3 hr 6 hr
6 hour
Temperature (ºF) Pressure Precipitation (in)